Погода в Грицеве

Украина / Хмельницкая область     49°58′24″N   27°13′39″E
темп.,
°C
ветер,
м/с
пор.,
м/с
влажн.,
%
обл.,
%
осадки,
мм/ч
давл.,
гПа
погр.,
м
15 апреля, чт
чт1500:00+7сз4695100 0.1 1014262
03:00+7сз349595 0.3 1013281
06:00+6ссз4592100 0.0 1014451
09:00+6сз4593100 0.1 1014354
12:00+6сз5691100 0.3 1014434
15:00+6сз6784100 0.3 1014565
18:00+6зсз6884100 0.0 1014570
21:00+4зсз61089100 0.1 1014483
16 апреля, пт
пт1600:00+3з61195100 3.4 1014435
03:00+2з61297100 8.5 1013446
06:00+1з51298100 3.4 1013394
09:00+1з61298100 5.9 1013396
12:00+2з61298100 0.4 1014467
15:00+2з61197100 0.5 1015501
18:00+2з61197100 0.0 1016556
21:00+2з5996100 0.1 1017647
17 апреля, сб
сб1700:00+1зюз4998100 0.5 1017368
03:00+1зюз4899100 1.9 1017264
06:00+2з4898100 0.3 1018380
09:00+2з3798100 1.7 1019357
12:00+3з2598100 0.2 1021324
15:00+3зсз2398100 0.4 1021289
18:00+4зсз1297100 0.0 1021283
21:00+4сз1198100 0.0 102227
18 апреля, вс
вс1800:00+4с119790 0.0 102134
03:00+3ссз2297100 0.0 102125
06:00+2сз119670 0.0 102010
09:00+5ююз218471 0.0 1020251
12:00+10ююз016645 0.0 1020926
15:00+11ссз1158100 0.1 10191293
18:00+11в125626 0.0 10191213
21:00+8юв227265 0.0 102015
19 апреля, пн
пн1900:00+8всв3375100 0.0 102061
03:00+7в3481100 0.0 101975
06:00+6всв3487100 0.0 101981
09:00+9в4779100 0.1 1018364
12:00+12в5759100 0.1 10171608
15:00+12всв6663100 0.5 10171152
18:00+11всв797016 0.3 10151073
21:00+8всв71375100 0.3 1015693